Location: Arbon
(43.0005°N, 0.7472°E)
Time: 13:22:05
(UTC+00:00)

Vanguard 1 - Pass Details

Date: 01 December 2020
Orbit: 648 x 3834 km, 34.3° (Epoch: 23 January)

Event Time Altitude Azimuth Distance (km) Brightness Sun altitude
Rises 04:38:32 0° 235° (SW) 3,192 - -26.8°
Reaches altitude 10° 04:40:44 10° 225° (SW) 2,440 - -26.4°
Exits shadow 04:43:07 25° 205° (SSW) 1,825 11.2 -26.0°
Maximum altitude 04:45:53 36° 159° (SSE) 1,674 11.4 -25.5°
Drops below altitude 10° 04:54:08 10° 98° (E) 3,944 14.2 -24.0°
Sets 04:58:43 0° 91° (E) 5,488 15.3 -23.2°
